Regional Weather Roundup
Issued by NWS New Orleans/Baton Rouge, LA

Home | Current Version | Previous Version | Graphics & Text | Print | Product List | Glossary On
Versions: 1 2 3 4 5 6 7 8 9 10 11 12 13 14 15 16 17 18 19 20 21 22 23 24 25 26 27 28 29 30 31 32 33 34 35 36 37 38 39 40 41 42 43 44 45 46 47 48 49 50
816
ASUS44 KLIX 141010
RWRLIX
NEW ORLEANS REGIONAL WEATHER ROUNDUP
NATIONAL WEATHER SERVICE NEW ORLEANS LA
500 AM CDT SUN SEP 14 2014

NOTE: "FAIR" INDICATES FEW OR NO CLOUDS BELOW 12,000 FEET WITH NO
      SIGNIFICANT WEATHER AND/OR OBSTRUCTIONS TO VISIBILITY.
      SKY/WX - SKY CONDITION AND SIGNIFICANT WEATHER.
      TMP - AIR TEMPERATURE.     DP    - DEWPOINT TEMPERATURE.
      RH  - RELATIVE HUMIDITY.   PRES  - PRESSURE.
      HI  - HEAT INDEX.          WCI   - WIND CHILL INDEX.

*  THESE STATIONS ARE NOT NWS OR FAA STATIONS AND ARE NOT UNDER
   NWS QUALITY CONTROL.

LAZ038-040-048-061>063-065>067-069-141100-
SOUTHEAST LOUISIANA

CITY           SKY/WX    TMP DP  RH WIND       PRES   REMARKS
N.O. AUDUBON   NOT AVBL
N.O. INTL ARPT CLOUDY    75  69  81 NE12      30.08S
N.O. LAKEFRONT CLOUDY    74  69  85 NE15      30.08F
N.O. DOWNTOWN* CLOUDY    73  66  78 NE5       30.08S
SLIDELL        CLEAR     70  67  90 N7        30.08S
BATON ROUGE    CLOUDY    69  66  90 NE7       30.11R
BOOTHVILLE     MOCLDY    81  76  84 NE13G21   30.05S
BELLE CHASSE   CLOUDY    74  68  81 NE9       30.07S
BOGALUSA*        N/A     68  65  89 CALM      30.12R FOG
GALLIANO*      NOT AVBL
NEW ROADS*     CLOUDY    68  66  92 N6        30.12R
GONZALES*      CLOUDY    71  71 100 NE6       30.09R
HAMMOND*       CLOUDY    70  64  83 NE3       30.11S
HOUMA*         CLOUDY    74  69  85 N9        30.06F
PORT FOURCHON* CLOUDY    79  75  89 N13G18    30.07S

$$

MSZ070-080>082-141100-
SOUTHERN MISSISSIPPI

CITY           SKY/WX    TMP DP  RH WIND       PRES   REMARKS
MCCOMB         CLOUDY    68  64  87 VRB3      30.13R
GULFPORT       CLEAR     70  66  87 N8        30.07S
BILOXI         CLEAR     71  67  89 N9        30.08R
PASCAGOULA     CLEAR     70  67  90 N7        30.08R

$$

COASTAL OBSERVATIONS
LAKE AND NEARSHORE STATIONS

STATION/POSITION TIME  TEMP    WIND        PRES    WAVE
                       AIR SEA DIR/SP/G            HT/PER
                 (UTC) (F)     (DEG/KT/KT) (MB)    (FT/S)
PASCAGOULA       1000   71      10/  9/ 12 1017.9
WAVELAND YACHT   1000   71      20/ 11/ 13 1018.0
GRAND ISLE       1000   78 85   40/  9/ 15 1017.8
SOUTHWEST PASS   1000   82 91   50/ 11/ 13 1017.0
NEW CANAL        1000   74 81   50/ 12/ 15 1018.8
SHELL BEACH      1000   75 78   30/ 15/ 17 1018.0

OFFSHORE STATIONS

STATION/POSITION TIME  TEMP    WIND        PRES    WAVE
                       AIR SEA DIR/SP/G            HT/PER
                 (UTC) (F)     (DEG/KT/KT) (MB)    (FT/S)
64 S DAUPHIN ISL 0852   81 86   70/ 17/ 19 1017.2    4/ 5

$$




USA.gov is the U.S. government's official web portal to all federal, state and local government web resources and services.